Home > Weather > Anaheim > Past weeks

Flag for USA Past Weather in Anaheim, California, USA — Yesterday and Last 2 Weeks

Now
70 °F

Passing clouds.


Feels Like: 68 °F
Forecast: 65 / 89 °F
Wind: 5 mph from Southwest

Location: Fullerton Municipal Airport

Current Time: Jul 24, 2016 at 5:49:37 AM

Latest Report: Jul 24, 2016 at 4:53 AM


Visibility: 7 mi

Pressure: 29.82 "Hg

Humidity: 87%

Dew Point: 66 °F

Location of AnaheimLocation

Past Weather in Anaheim — Graph

°F

Anaheim Temperature Yesterday

Maximum temperature yesterday: 95 °F (at 11:53 AM)
Minimum temperature yesterday: 71 °F (at 4:53 AM)
Average temperature yesterday: 79 °F

High & Low Weather Summary for the Past Weeks

 TemperatureHumidityPressure
High103 °F (Jul 22, 2:53 PM)85% (Jul 10, 3:53 AM)30.03 "Hg (Jul 10, 3:53 AM)
Low65 °F (Jul 15, 3:53 AM)13% (Jul 22, 3:53 PM)29.78 "Hg (Jul 23, 5:53 PM)
Average76 °F59%29.91 "Hg
* Reported Jul 9 3:53 AM — Jul 24 3:53 AM, Anaheim, Weather by CustomWeather, © 2016

Note: Actual official high and low records may vary slightly from our data, if they occured in-between our weather recording intervals... More about our weather records

Advertising

Anaheim Weather History for the Previous 24 Hours

Scroll right to see more
 ConditionsComfort  
Time TempWeatherWind HumidityBarometerVisibility
3:53 AM
Sun, Jul 24
70 °FClear.3 mph84%29.80 "Hg7 mi
2:53 AM71 °FClear.No wind81%29.80 "Hg8 mi
1:53 AM72 °FClear.No wind78%29.80 "Hg9 mi
12:53 AM73 °FClear.No wind74%29.80 "Hg9 mi
11:53 PM
Sat, Jul 23
73 °FClear.No wind76%29.81 "Hg9 mi
10:53 PM74 °FClear.No wind74%29.82 "Hg9 mi
9:53 PM74 °FClear.No wind74%29.83 "Hg9 mi
8:53 PM75 °FSunny.No wind71%29.81 "Hg10 mi
7:53 PM77 °FSunny.6 mph64%29.80 "Hg10 mi
6:53 PM80 °FSunny.6 mph58%29.79 "Hg10 mi
5:53 PM82 °FSunny.8 mph51%29.78 "Hg10 mi
4:53 PM84 °FSunny.9 mph48%29.79 "Hg10 mi
3:53 PM85 °FSunny.9 mph45%29.79 "Hg10 mi
2:53 PM87 °FSunny.10 mph43%29.79 "Hg10 mi
1:53 PM87 °FSunny.9 mph43%29.79 "Hg10 mi
12:53 PM92 °FSunny.9 mph36%29.78 "Hg10 mi
11:53 AM95 °FSunny.8 mph32%29.79 "Hg10 mi
10:53 AM91 °FSunny.3 mph36%29.79 "Hg10 mi
9:53 AM87 °FSunny.No wind36%29.80 "Hg10 mi
8:53 AM82 °FSunny.No wind46%29.81 "Hg10 mi
7:53 AM76 °FSunny.No wind62%29.80 "Hg10 mi
6:53 AM72 °FClear.No wind71%29.80 "Hg10 mi
5:53 AM71 °FClear.No wind73%29.80 "Hg10 mi
Weather by CustomWeather, © 2016

See weather overviewHow to use our weather pages